FWS9458 Weather Reports


time (UTC)temp
C
wind
direction
speed
KPH
gust
KPH
rain 1hr
cm
rain 24hr
cm
rain mn
cm
humidity
%
barometer
mb
20260508122105 14 251 4.8 17.7 0.00 0.33 0.33 66 1011.3
20260508121804 13 258 6.4 17.7 0.00 0.33 0.33 63 1011.3
20260508121504 14 254 3.2 17.7 0.00 0.33 0.33 66 1011.1
20260508121204 14 255 4.8 17.7 0.00 0.33 0.33 66 1011.3
20260508120904 14 287 6.4 11.3 0.00 0.33 0.33 66 1011.3
20260508120604 15 32 1.6 6.4 0.00 0.33 0.33 70 1011.1
20260508120304 15 344 3.2 9.7 0.00 0.33 0.33 71 1011.2
20260508120005 14 242 3.2 9.7 0.00 0.33 0.33 70 1011.6
20260508115404 14 242 3.2 9.7 0.03 0.33 0.33 66 1011.6
20260508115104 14 309 3.2 17.7 0.05 0.33 0.33 70 1011.4
20260508114804 14 3 3.2 17.7 0.05 0.33 0.33 72 1011.3
20260508114505 13 5 1.6 17.7 0.05 0.33 0.33 74 1011.5
20260508114203 13 18 4.8 9.7 0.05 0.33 0.33 80 1011.6
20260508113904 13 346 3.2 6.4 0.05 0.33 0.33 82 1011.6
20260508113604 12 331 3.2 6.4 0.05 0.33 0.33 83 1011.9
20260508113304 13 340 0.0 6.4 0.05 0.33 0.33 88 1011.8
20260508113005 12 343 3.2 6.4 0.05 0.33 0.33 89 1011.6
20260508112703 12 354 0.0 6.4 0.05 0.33 0.33 90 1011.9
20260508112404 12 357 3.2 6.4 0.05 0.33 0.33 90 1011.9
20260508112104 12 7 4.8 6.4 0.05 0.33 0.33 90 1012.0
20260508111804 11 348 0.0 6.4 0.05 0.33 0.33 91 1011.9
20260508111504 11 7 0.0 6.4 0.05 0.33 0.33 90 1012.0
20260508111204 11 23 1.6 11.3 0.05 0.33 0.33 90 1012.3
20260508110903 11 248 1.6 20.9 0.05 0.33 0.33 90 1012.0
20260508110604 11 218 0.0 33.8 0.05 0.33 0.33 89 1012.0
20260508110304 10 226 3.2 37.0 0.05 0.33 0.33 86 1012.1
20260508110005 10 223 11.3 37.0 0.05 0.33 0.33 85 1012.1
20260508105703 11 230 16.1 37.0 0.03 0.30 0.30 80 1012.3
20260508105404 12 240 19.3 32.2 0.00 0.28 0.28 74 1012.1
20260508104804 12 250 3.2 14.5 0.00 0.28 0.28 71 1011.9
20260508104505 12 258 6.4 14.5 0.00 0.28 0.28 70 1011.6
20260508104204 13 264 8.0 14.5 0.00 0.28 0.28 66 1011.7
20260508103904 13 262 3.2 14.5 0.00 0.28 0.28 69 1011.8
20260508103604 13 276 6.4 14.5 0.00 0.28 0.28 68 1011.7
20260508103304 14 264 6.4 14.5 0.00 0.28 0.28 65 1011.5
20260508103005 14 258 3.2 14.5 0.00 0.28 0.28 67 1011.7
20260508102703 13 245 9.7 14.5 0.00 0.28 0.28 70 1011.7
20260508102404 13 244 6.4 12.9 0.00 0.28 0.28 70 1011.7
20260508102104 13 231 4.8 12.9 0.00 0.28 0.28 69 1011.7
20260508101804 14 341 3.2 6.4 0.00 0.28 0.28 67 1011.6
20260508101505 15 348 3.2 6.4 0.00 0.28 0.28 65 1011.5
20260508101204 15 297 1.6 6.4 0.00 0.28 0.28 67 1011.5
20260508100904 15 270 0.0 6.4 0.00 0.28 0.28 68 1011.7
20260508100604 14 246 0.0 6.4 0.00 0.28 0.28 72 1011.6
20260508100303 13 235 3.2 6.4 0.00 0.28 0.28 72 1011.6
20260508100004 13 192 3.2 6.4 0.00 0.28 0.28 71 1011.7
20260508095704 14 238 0.0 3.2 0.00 0.28 0.28 68 1011.7
20260508095104 14 227 0.0 3.2 0.00 0.28 0.28 67 1011.6
20260508094804 14 294 0.0 3.2 0.00 0.28 0.28 65 1011.5
20260508094204 14 249 1.6 6.4 0.00 0.28 0.28 65 1011.4
20260508093904 14 227 1.6 6.4 0.00 0.28 0.28 65 1011.4
20260508093604 13 268 3.2 6.4 0.00 0.28 0.28 65 1011.6
20260508093304 15 49 1.6 6.4 0.00 0.28 0.28 64 1011.5
20260508093004 15 51 0.0 6.4 0.00 0.28 0.28 64 1011.4
20260508092704 15 210 1.6 6.4 0.00 0.28 0.28 60 1011.4
20260508092403 15 239 0.0 6.4 0.00 0.28 0.28 64 1011.2
20260508092104 14 238 3.2 6.4 0.00 0.28 0.28 62 1011.4
20260508091804 13 258 3.2 6.4 0.00 0.28 0.28 67 1011.4
20260508091504 13 253 3.2 6.4 0.00 0.28 0.28 67 1011.4
20260508091203 14 228 1.6 11.3 0.00 0.28 0.28 69 1011.6
20260508090611 13 230 3.2 11.3 0.00 0.28 0.28 71 1011.4
20260508090303 12 225 8.0 11.3 0.00 0.28 0.28 71 1011.3
20260508090005 12 243 6.4 9.7 0.00 0.28 0.28 74 1011.4
20260508085704 12 235 4.8 9.7 0.00 0.28 0.28 77 1011.4
20260508085104 11 234 3.2 9.7 0.00 0.28 0.28 80 1011.3
20260508084803 12 240 1.6 9.7 0.00 0.28 0.28 86 1011.4
20260508084505 11 235 3.2 9.7 0.00 0.28 0.28 87 1011.4
20260508084204 11 230 6.4 9.7 0.00 0.28 0.28 89 1011.3
20260508083903 11 227 3.2 11.3 0.00 0.28 0.28 91 1011.5
20260508083604 10 224 4.8 14.5 0.00 0.28 0.28 92 1011.4
20260508083304 10 225 6.4 14.5 0.00 0.28 0.28 93 1011.1
20260508083005 10 233 4.8 14.5 0.00 0.28 0.28 95 1011.5
20260508082704 10 232 8.0 14.5 0.00 0.28 0.28 96 1011.3
20260508082104 11 242 4.8 6.4 0.00 0.28 0.28 97 1011.3
20260508081803 11 254 0.0 3.2 0.00 0.28 0.28 97 1011.2
20260508081505 11 259 0.0 3.2 0.00 0.28 0.28 97 1011.0
20260508081204 11 261 0.0 3.2 0.00 0.28 0.28 97 1011.1
20260508080904 11 261 0.0 3.2 0.00 0.28 0.28 97 1010.9
20260508080603 11 264 1.6 3.2 0.00 0.28 0.28 98 1011.2
20260508080304 11 0 0.0 0.0 0.00 0.28 0.28 98 1010.9
20260508080004 11 225 0.0 3.2 0.00 0.28 0.28 98 1011.1
20260508075703 10 225 0.0 3.2 0.00 0.28 0.28 98 1011.2
20260508075404 10 224 0.0 3.2 0.00 0.28 0.28 98 1011.1
20260508075104 10 233 3.2 3.2 0.00 0.28 0.28 98 1010.9
20260508074504 10 226 1.6 3.2 0.00 0.28 0.28 99 1010.9
20260508074204 10 230 1.6 3.2 0.00 0.28 0.28 99 1011.1
20260508073604 9 242 3.2 3.2 0.00 0.28 0.28 99 1011.1
20260508073304 10 237 0.0 3.2 0.00 0.28 0.28 99 1011.1
20260508073004 9 242 0.0 3.2 0.00 0.28 0.28 99 1011.0
20260508072703 9 248 1.6 3.2 0.00 0.28 0.28 99 1010.9
20260508072404 9 248 1.6 3.2 0.00 0.28 0.28 99 1011.1
20260508072104 9 266 0.0 3.2 0.00 0.28 0.28 99 1011.2
20260508071804 10 255 0.0 6.4 0.00 0.28 0.28 99 1011.0
20260508071504 9 248 0.0 6.4 0.00 0.28 0.28 99 1010.9
20260508071204 9 249 0.0 6.4 0.00 0.28 0.28 99 1011.1
20260508070604 9 249 0.0 9.7 0.00 0.28 0.28 99 1011.0
20260508070005 9 265 4.8 11.3 0.00 0.28 0.28 99 1011.1
20260508065703 9 262 3.2 11.3 0.00 0.28 0.28 99 1010.9
20260508065404 9 261 6.4 11.3 0.00 0.28 0.28 99 1010.9
20260508065104 10 254 3.2 11.3 0.00 0.28 0.28 99 1011.0
20260508064803 9 258 6.4 11.3 0.00 0.28 0.28 99 1010.8
20260508064504 10 259 3.2 9.7 0.00 0.28 0.28 99 1010.8
20260508064204 10 259 0.0 6.4 0.00 0.28 0.28 99 1010.8
20260508063304 10 258 3.2 6.4 0.03 0.28 0.28 99 1010.7
20260508063004 9 248 3.2 6.4 0.03 0.28 0.28 99 1010.5
20260508062704 9 247 3.2 6.4 0.03 0.28 0.28 99 1010.6
20260508062403 9 241 3.2 6.4 0.03 0.28 0.28 99 1010.5
20260508062104 9 234 3.2 6.4 0.03 0.28 0.28 99 1010.4
20260508061804 9 233 3.2 6.4 0.03 0.28 0.28 99 1010.5
20260508060304 9 192 3.2 6.4 0.03 0.28 0.28 99 1010.3
20260508060004 9 213 4.8 6.4 0.03 0.28 0.28 99 1010.4
20260508055704 9 5 3.2 6.4 0.03 0.28 0.28 99 1010.2
20260508055403 9 8 0.0 9.7 0.03 0.28 0.28 98 1010.0
20260508055104 9 16 3.2 9.7 0.03 0.28 0.28 98 1009.8
20260508054804 9 40 4.8 14.5 0.03 0.28 0.28 98 1010.0
20260508054504 9 98 6.4 17.7 0.03 0.28 0.28 98 1010.1
20260508054203 9 135 4.8 17.7 0.03 0.28 0.28 98 1010.1
20260508053904 9 158 8.0 17.7 0.00 0.23 0.23 98 1010.2
20260508053303 9 158 4.8 6.4 0.00 0.23 0.23 98 1010.3
20260508052704 9 0 0.0 0.0 0.00 0.23 0.23 98 1010.0
20260508052403 9 0 0.0 0.0 0.00 0.23 0.23 98 1010.1
20260508052104 9 0 0.0 0.0 0.00 0.23 0.23 98 1010.0
20260508051804 9 90 0.0 3.2 0.00 0.23 0.23 98 1010.0
20260508051504 9 107 0.0 6.4 0.00 0.23 0.23 98 1009.7
20260508051203 9 129 0.0 6.4 0.00 0.23 0.23 98 1009.8
20260508050904 9 135 1.6 6.4 0.00 0.23 0.23 98 1009.8
20260508050604 9 147 3.2 6.4 0.00 0.23 0.23 98 1009.6
20260508050303 9 158 3.2 3.2 0.05 0.23 0.23 98 1009.7
20260508050004 9 0 0.0 0.0 0.10 0.23 0.23 98 1009.7
20260508045704 9 0 0.0 0.0 0.10 0.23 0.23 98 1009.7
20260508045403 9 0 0.0 0.0 0.10 0.23 0.23 98 1009.8
20260508045104 9 1 0.0 3.2 0.10 0.23 0.23 98 1009.6
20260508044804 9 1 0.0 3.2 0.10 0.23 0.23 98 1009.5
20260508044505 9 26 0.0 3.2 0.10 0.23 0.23 98 1009.7
20260508044203 9 61 1.6 3.2 0.10 0.23 0.23 98 1009.8
20260508043904 9 133 1.6 6.4 0.10 0.23 0.23 98 1009.9
20260508043604 9 143 1.6 6.4 0.10 0.23 0.23 98 1009.9
20260508043303 9 117 1.6 6.4 0.13 0.23 0.23 98 1009.9
20260508043004 9 71 6.4 6.4 0.13 0.23 0.23 98 1009.7
20260508042704 9 44 3.2 6.4 0.13 0.23 0.23 98 1009.8
20260508042404 9 38 4.8 6.4 0.13 0.23 0.23 98 1009.6
20260508042103 9 33 4.8 6.4 0.13 0.23 0.23 97 1009.8
20260508041804 9 0 0.0 0.0 0.13 0.23 0.23 97 1009.8
20260508041504 9 0 0.0 0.0 0.13 0.23 0.23 97 1010.2
20260508040903 9 165 0.0 11.3 0.13 0.23 0.23 97 1010.0
20260508040604 9 166 0.0 11.3 0.10 0.20 0.20 97 1010.0
20260508040303 9 170 0.0 11.3 0.03 0.15 0.15 97 1010.1
20260508040004 9 171 6.4 11.3 0.03 0.15 0.15 97 1010.7
20260508035404 9 0 0.0 0.0 0.03 0.15 0.15 97 1009.7
20260508035103 9 23 0.0 3.2 0.03 0.15 0.15 97 1009.6
20260508034804 10 331 0.0 3.2 0.03 0.15 0.15 97 1009.7
20260508034504 10 289 0.0 3.2 0.03 0.15 0.15 97 1009.7
20260508034203 10 174 0.0 11.3 0.03 0.15 0.15 97 1009.7
20260508033904 9 165 3.2 11.3 0.10 0.15 0.15 97 1009.9
20260508033604 10 159 0.0 11.3 0.15 0.15 0.15 97 1009.9
20260508033004 10 158 0.0 6.4 0.13 0.13 0.13 97 1009.7
20260508032703 10 161 3.2 6.4 0.13 0.13 0.13 97 1009.8
20260508032404 10 175 4.8 6.4 0.13 0.13 0.13 96 1009.6
20260508032104 10 217 3.2 3.2 0.13 0.13 0.13 96 1009.7
20260508031803 10 259 0.0 3.2 0.13 0.13 0.13 96 1009.5
20260508031504 10 242 1.6 3.2 0.13 0.13 0.13 96 1009.5
20260508031204 10 241 0.0 3.2 0.13 0.13 0.13 96 1009.6
20260508030904 10 223 1.6 3.2 0.13 0.13 0.13 96 1009.5
20260508030603 10 225 1.6 3.2 0.13 0.13 0.13 95 1009.9
20260508030304 10 0 0.0 0.0 0.13 0.13 0.13 95 1009.8
20260508030004 10 0 0.0 0.0 0.13 0.13 0.13 95 1009.9
20260508025703 10 0 0.0 0.0 0.13 0.13 0.13 95 1009.7
20260508025404 10 0 0.0 0.0 0.13 0.13 0.13 95 1009.9
20260508025104 10 0 0.0 0.0 0.13 0.13 0.13 94 1009.7
20260508024803 10 170 0.0 3.2 0.13 0.13 0.13 94 1009.8
20260508024504 10 172 0.0 3.2 0.13 0.13 0.13 94 1009.8
20260508024203 10 87 0.0 3.2 0.13 0.13 0.13 94 1009.9
20260508023904 10 15 3.2 6.4 0.05 0.05 0.05 93 1010.1
20260508023304 10 10 3.2 6.4 0.00 0.00 0.00 93 1009.8
20260508022703 10 349 0.0 3.2 0.00 0.00 0.00 93 1009.9
20260508022103 10 353 0.0 3.2 0.00 0.00 0.00 93 1010.2
20260508021203 10 0 0.0 0.0 0.00 0.00 0.00 93 1010.3
20260508020604 10 0 0.0 0.0 0.00 0.00 0.00 92 1010.1
20260508020303 10 35 0.0 6.4 0.00 0.00 0.00 92 1010.1
20260508020004 10 19 0.0 6.4 0.00 0.00 0.00 92 1010.0
20260508015704 10 10 0.0 6.4 0.00 0.00 0.00 92 1010.4
20260508015405 10 4 1.6 6.4 0.00 0.00 0.00 92 1010.3
20260508015104 10 4 3.2 6.4 0.00 0.00 0.00 92 1010.2
20260508014505 10 18 0.0 3.2 0.00 0.00 0.00 91 1010.6
20260508014205 10 22 1.6 3.2 0.00 0.00 0.00 91 1010.5
20260508013904 10 23 0.0 3.2 0.00 0.00 0.00 90 1010.6
20260508013605 10 23 0.0 3.2 0.00 0.00 0.00 90 1010.5
20260508013005 10 0 0.0 0.0 0.00 0.00 0.00 89 1010.7
20260508012705 10 0 0.0 0.0 0.00 0.00 0.00 88 1010.5
20260508012405 10 0 0.0 0.0 0.00 0.00 0.00 88 1010.9
20260508012105 10 158 0.0 6.4 0.00 0.00 0.00 89 1010.6
20260508011805 10 158 0.0 6.4 0.00 0.00 0.00 88 1010.6
20260508011505 10 158 0.0 6.4 0.00 0.00 0.00 88 1010.7
20260508011205 11 39 3.2 6.4 0.00 0.00 0.00 87 1010.6
20260508010905 11 21 0.0 6.4 0.00 0.00 0.00 86 1010.9
20260508010604 11 19 0.0 6.4 0.00 0.00 0.00 84 1010.7
20260508010305 11 21 3.2 6.4 0.00 0.00 0.00 83 1010.5
20260508010005 11 13 3.2 6.4 0.00 0.00 0.00 84 1010.7
20260508005705 11 12 1.6 6.4 0.00 0.00 0.00 85 1010.9
20260508005404 10 14 1.6 6.4 0.00 0.00 0.00 86 1010.6
20260508005104 10 17 3.2 6.4 0.00 0.00 0.00 87 1010.9
20260508004805 10 0 0.0 0.0 0.00 0.00 0.00 87 1010.8
20260508004505 10 0 0.0 0.0 0.00 0.00 0.00 87 1010.9
20260508004205 10 0 0.0 0.0 0.00 0.00 0.00 86 1011.1
20260508003904 11 0 0.0 0.0 0.00 0.00 0.00 86 1010.9
20260508003605 11 0 0.0 0.0 0.00 0.00 0.00 85 1011.0
20260508003305 11 0 0.0 0.0 0.00 0.00 0.00 84 1011.1
20260508003006 11 0 0.0 0.0 0.00 0.00 0.00 83 1010.8
20260508002704 11 0 0.0 0.0 0.00 0.00 0.00 84 1010.7
20260508002405 11 0 0.0 0.0 0.00 0.00 0.00 84 1010.8
20260508002104 11 0 0.0 0.0 0.00 0.00 0.00 84 1011.0
20260508001805 11 0 0.0 0.0 0.00 0.00 0.00 84 1011.0
20260508001505 11 0 0.0 0.0 0.00 0.00 0.00 84 1010.9
20260508000604 11 0 0.0 0.0 0.00 0.00 0.00 82 1010.7
20260508000305 11 0 0.0 0.0 0.00 0.00 0.00 82 1010.8
20260508000005 11 0 0.0 0.0 0.00 0.00 0.00 82 1010.9
20260507235705 11 0 0.0 0.0 0.00 0.00 0.00 81 1010.8
20260507235105 11 0 0.0 0.0 0.00 0.00 0.00 82 1011.0
20260507234505 11 0 0.0 0.0 0.00 0.00 0.00 82 1011.0
20260507233604 11 0 0.0 0.0 0.00 0.00 0.00 84 1011.1
20260507233305 11 337 0.0 3.2 0.00 0.00 0.00 84 1011.0
20260507232704 11 337 0.0 3.2 0.00 0.00 0.00 82 1011.2
20260507232405 11 90 0.0 3.2 0.00 0.00 0.00 81 1011.3
20260507232104 11 90 0.0 3.2 0.00 0.00 0.00 81 1011.3
20260507231804 11 90 0.0 3.2 0.00 0.00 0.00 81 1011.3
20260507231505 11 90 0.0 3.2 0.00 0.00 0.00 82 1011.1
20260507231205 11 90 3.2 3.2 0.00 0.00 0.00 82 1011.3
20260507230904 11 90 3.2 3.2 0.00 0.00 0.00 82 1011.2
20260507230605 11 181 0.0 6.4 0.00 0.00 0.00 83 1011.2
20260507230304 11 181 0.0 6.4 0.00 0.00 0.00 83 1011.2
20260507230008 11 181 0.0 6.4 0.00 0.00 0.00 82 1011.3
20260507225704 11 192 4.8 6.4 0.00 0.00 0.00 82 1011.5
20260507225104 11 0 0.0 0.0 0.00 0.00 0.00 83 1011.3
20260507224805 11 0 0.0 0.0 0.00 0.00 0.00 84 1011.1
20260507224505 11 112 0.0 3.2 0.00 0.00 0.00 84 1011.2
20260507224204 11 92 0.0 9.7 0.00 0.00 0.00 84 1011.2
20260507223905 11 89 0.0 9.7 0.00 0.00 0.00 83 1011.2
20260507223305 11 85 4.8 9.7 0.00 0.00 0.00 81 1010.9
20260507223006 11 0 0.0 0.0 0.00 0.00 0.00 81 1011.3
20260507222704 11 0 0.0 0.0 0.00 0.00 0.00 80 1011.2
20260507222405 11 0 0.0 0.0 0.00 0.00 0.00 81 1011.3
20260507222105 11 0 0.0 0.0 0.00 0.00 0.00 81 1011.4
20260507221804 11 224 0.0 3.2 0.00 0.00 0.00 81 1011.5
20260507221205 11 226 0.0 3.2 0.00 0.00 0.00 81 1011.4
20260507220905 11 234 1.6 3.2 0.00 0.00 0.00 81 1011.4
20260507220604 11 238 3.2 3.2 0.00 0.00 0.00 81 1011.4
20260507220305 11 252 1.6 6.4 0.00 0.00 0.00 81 1011.4
20260507220005 11 251 3.2 6.4 0.00 0.00 0.00 81 1011.4
20260507215705 11 255 3.2 6.4 0.00 0.00 0.00 81 1011.4
20260507215404 11 68 3.2 6.4 0.00 0.00 0.00 80 1011.7
20260507215104 11 72 0.0 6.4 0.00 0.00 0.00 79 1011.4
20260507214805 11 69 4.8 9.7 0.00 0.00 0.00 79 1011.1
20260507214505 11 75 6.4 9.7 0.00 0.00 0.00 80 1011.5
20260507214205 11 79 6.4 9.7 0.00 0.00 0.00 80 1011.6
20260507213904 11 87 6.4 6.4 0.00 0.00 0.00 79 1011.5
20260507213605 11 90 4.8 6.4 0.00 0.00 0.00 78 1011.6
20260507213305 11 0 0.0 0.0 0.00 0.00 0.00 79 1011.5
20260507213005 11 0 0.0 0.0 0.00 0.00 0.00 79 1011.3
20260507212704 11 225 0.0 3.2 0.00 0.00 0.00 79 1011.6
20260507212405 11 225 0.0 3.2 0.00 0.00 0.00 79 1011.5
20260507212104 11 245 0.0 3.2 0.00 0.00 0.00 79 1011.6
20260507211804 12 248 0.0 9.7 0.00 0.00 0.00 78 1011.5
20260507211505 12 240 0.0 9.7 0.00 0.00 0.00 78 1011.9
20260507211205 12 243 0.0 9.7 0.00 0.00 0.00 78 1011.6
20260507210904 12 237 4.8 9.7 0.00 0.00 0.00 77 1011.5
20260507210305 12 234 3.2 9.7 0.00 0.00 0.00 76 1011.6
20260507205704 12 245 3.2 9.7 0.00 0.00 0.00 75 1011.3
20260507205404 12 240 0.0 9.7 0.00 0.00 0.00 75 1011.5
20260507204205 13 107 3.2 6.4 0.00 0.00 0.00 73 1011.4
20260507203904 12 97 0.0 6.4 0.00 0.00 0.00 74 1011.2
20260507203604 12 87 3.2 6.4 0.00 0.00 0.00 74 1011.2
20260507203305 12 94 3.2 6.4 0.00 0.00 0.00 74 1011.1
20260507202705 13 92 3.2 6.4 0.00 0.00 0.00 74 1011.1
20260507202404 13 236 3.2 6.4 0.00 0.00 0.00 74 1011.0
20260507202105 13 255 3.2 9.7 0.00 0.00 0.00 74 1011.1
20260507201804 12 239 3.2 9.7 0.00 0.00 0.00 73 1010.9
20260507201204 12 209 1.6 11.3 0.00 0.00 0.00 74 1010.8
20260507200905 12 209 3.2 11.3 0.00 0.00 0.00 74 1010.7
20260507200604 12 210 3.2 11.3 0.00 0.00 0.00 74 1010.7
20260507200304 12 202 8.0 11.3 0.00 0.00 0.00 74 1011.0
20260507195404 13 222 6.4 11.3 0.00 0.00 0.00 72 1010.6
20260507195104 13 221 6.4 11.3 0.00 0.00 0.00 72 1010.5
20260507194805 13 203 3.2 6.4 0.00 0.00 0.00 73 1010.4
20260507194505 13 210 4.8 6.4 0.00 0.00 0.00 73 1010.5
20260507194204 13 214 4.8 6.4 0.00 0.00 0.00 73 1010.3
20260507193605 13 221 3.2 6.4 0.00 0.00 0.00 71 1010.4
20260507193304 13 210 0.0 6.4 0.00 0.00 0.00 71 1010.2
20260507193005 13 215 3.2 9.7 0.00 0.00 0.00 70 1010.1
20260507192704 14 196 3.2 9.7 0.00 0.00 0.00 68 1010.1
20260507192404 14 225 3.2 9.7 0.00 0.00 0.00 67 1010.0
20260507192105 14 132 3.2 9.7 0.00 0.00 0.00 68 1010.0
20260507191505 15 98 0.0 6.4 0.00 0.00 0.00 68 1009.9
20260507191205 15 91 1.6 9.7 0.00 0.00 0.00 67 1010.1
20260507190905 15 83 1.6 9.7 0.00 0.00 0.00 67 1009.9
20260507185704 15 96 3.2 6.4 0.00 0.00 0.00 66 1009.7
20260507185104 15 74 3.2 6.4 0.00 0.00 0.00 65 1009.8
20260507184505 15 65 3.2 9.7 0.00 0.00 0.00 64 1009.8
20260507184205 15 61 3.2 9.7 0.00 0.00 0.00 64 1009.6
20260507183904 16 95 0.0 9.7 0.00 0.00 0.00 64 1009.7
20260507183604 16 104 3.2 9.7 0.00 0.00 0.00 63 1009.7
20260507183305 16 126 4.8 9.7 0.00 0.00 0.00 63 1009.5
20260507183005 16 115 3.2 6.4 0.00 0.00 0.00 63 1009.6
20260507182705 16 128 1.6 9.7 0.00 0.00 0.00 63 1009.7
20260507182104 16 106 1.6 9.7 0.00 0.00 0.00 62 1009.6
20260507181804 16 87 1.6 9.7 0.00 0.00 0.00 62 1009.6
20260507181505 16 90 1.6 11.3 0.00 0.00 0.00 61 1009.8
20260507180904 16 293 3.2 11.3 0.00 0.00 0.00 61 1009.6
20260507180305 17 35 3.2 11.3 0.00 0.00 0.00 61 1009.7
20260507180005 17 72 3.2 11.3 0.00 0.00 0.00 61 1009.6
20260507175704 17 72 3.2 11.3 0.00 0.00 0.00 61 1009.7
20260507175404 17 70 6.4 11.3 0.00 0.00 0.00 61 1009.8
20260507175105 17 77 3.2 6.4 0.00 0.00 0.00 61 1009.6
20260507174804 17 107 1.6 9.7 0.00 0.00 0.00 61 1009.7
20260507174505 17 104 1.6 9.7 0.00 0.00 0.00 61 1009.8
20260507174204 17 92 4.8 11.3 0.00 0.00 0.00 60 1009.8
20260507173904 17 89 3.2 11.3 0.00 0.00 0.00 60 1009.6
20260507173605 17 76 3.2 11.3 0.00 0.00 0.00 60 1009.6
20260507173304 17 92 4.8 11.3 0.00 0.00 0.00 59 1009.8
20260507173005 17 81 3.2 6.4 0.00 0.00 0.00 57 1009.7
20260507172704 17 90 3.2 6.4 0.00 0.00 0.00 58 1009.6
20260507172405 17 79 4.8 6.4 0.00 0.00 0.00 57 1009.8
20260507172104 18 81 0.0 9.7 0.00 0.00 0.00 56 1010.0
20260507171804 18 110 3.2 9.7 0.00 0.00 0.00 55 1009.7
20260507171505 18 94 3.2 9.7 0.00 0.00 0.00 55 1009.7
20260507171205 18 91 1.6 9.7 0.00 0.00 0.00 56 1009.6
20260507170904 18 77 3.2 9.7 0.00 0.00 0.00 55 1009.6
20260507170604 18 81 3.2 11.3 0.00 0.00 0.00 55 1009.7
20260507170305 18 76 3.2 11.3 0.00 0.00 0.00 53 1009.5
20260507170005 18 56 4.8 12.9 0.00 0.00 0.00 54 1009.5
20260507164805 19 61 3.2 9.7 0.00 0.00 0.00 52 1009.5
20260507164204 19 51 3.2 6.4 0.00 0.00 0.00 52 1009.6
20260507163904 20 44 1.6 6.4 0.00 0.00 0.00 52 1009.6
20260507163604 19 117 1.6 6.4 0.00 0.00 0.00 52 1009.8
20260507163304 19 229 0.0 6.4 0.00 0.00 0.00 51 1009.7
20260507163005 19 161 0.0 6.4 0.00 0.00 0.00 51 1009.7
20260507162704 19 128 0.0 6.4 0.00 0.00 0.00 51 1009.8
20260507162404 19 183 3.2 6.4 0.00 0.00 0.00 49 1009.7
20260507161804 20 194 1.6 9.7 0.00 0.00 0.00 47 1009.7
20260507161504 21 258 1.6 14.5 0.00 0.00 0.00 45 1009.7
20260507161204 21 295 3.2 14.5 0.00 0.00 0.00 46 1009.8
20260507160904 21 292 1.6 14.5 0.00 0.00 0.00 48 1009.8
20260507160604 20 291 6.4 14.5 0.00 0.00 0.00 47 1009.6
20260507160305 20 308 6.4 14.5 0.00 0.00 0.00 48 1009.6
20260507155404 20 134 3.2 17.7 0.00 0.00 0.00 49 1009.6
20260507155104 20 179 3.2 17.7 0.00 0.00 0.00 48 1009.9
20260507154804 20 189 9.7 17.7 0.00 0.00 0.00 50 1009.7
20260507154505 19 112 4.8 14.5 0.00 0.00 0.00 48 1009.6
20260507154205 20 155 3.2 14.5 0.00 0.00 0.00 48 1009.6
20260507153904 21 136 3.2 12.9 0.00 0.00 0.00 45 1009.5
20260507153604 21 164 4.8 12.9 0.00 0.00 0.00 44 1009.5
20260507153304 20 58 3.2 12.9 0.00 0.00 0.00 46 1009.6
20260507153005 21 317 3.2 11.3 0.00 0.00 0.00 43 1009.5
20260507152405 21 291 3.2 11.3 0.00 0.00 0.00 45 1009.6
20260507152104 20 263 4.8 17.7 0.00 0.00 0.00 46 1009.8
20260507151804 20 209 1.6 17.7 0.00 0.00 0.00 48 1009.7
20260507151505 20 199 8.0 17.7 0.00 0.00 0.00 48 1009.8
20260507151204 21 175 6.4 12.9 0.00 0.00 0.00 46 1009.7
20260507150604 21 234 1.6 17.7 0.00 0.00 0.00 41 1009.9
20260507150304 20 232 3.2 20.9 0.00 0.00 0.00 43 1009.8
20260507150005 19 222 6.4 24.1 0.00 0.00 0.00 43 1009.9
20260507145705 18 210 8.0 24.1 0.00 0.00 0.00 42 1010.0
20260507145404 20 210 8.0 24.1 0.00 0.00 0.00 43 1010.0
20260507145104 19 211 12.9 22.5 0.00 0.00 0.00 45 1010.0
20260507144804 19 225 11.3 24.1 0.00 0.00 0.00 43 1010.0
20260507144204 19 253 14.5 24.1 0.00 0.00 0.00 46 1010.1
20260507143604 20 239 8.0 22.5 0.00 0.00 0.00 47 1010.0
20260507143304 20 218 6.4 22.5 0.00 0.00 0.00 48 1010.4
20260507142705 19 216 9.7 22.5 0.00 0.00 0.00 44 1010.2
20260507142404 19 221 12.9 20.9 0.00 0.00 0.00 46 1010.1
20260507142104 20 246 6.4 17.7 0.00 0.00 0.00 46 1010.0
20260507141804 19 241 4.8 24.1 0.00 0.00 0.00 46 1010.1
20260507141504 19 243 6.4 25.7 0.00 0.00 0.00 46 1010.3
20260507140904 18 220 17.7 25.7 0.00 0.00 0.00 47 1010.5
20260507140604 18 225 16.1 24.1 0.00 0.00 0.00 46 1010.4
20260507140304 19 236 12.9 22.5 0.00 0.00 0.00 47 1010.3
20260507140006 20 259 11.3 22.5 0.00 0.00 0.00 45 1010.2
20260507135704 20 263 4.8 22.5 0.00 0.00 0.00 45 1010.3
20260507135404 20 247 12.9 22.5 0.00 0.00 0.00 45 1010.5
20260507134804 20 212 9.7 22.5 0.00 0.00 0.00 45 1010.3
20260507133904 19 229 6.4 22.5 0.00 0.00 0.00 46 1010.4
20260507133604 20 243 3.2 22.5 0.00 0.00 0.00 45 1010.3
20260507133304 20 240 4.8 22.5 0.00 0.00 0.00 45 1010.1
20260507133005 19 249 8.0 25.7 0.00 0.00 0.00 45 1010.3
20260507132704 19 247 6.4 25.7 0.00 0.00 0.00 45 1010.4
20260507132104 19 255 12.9 22.5 0.00 0.00 0.00 46 1010.4
20260507131804 18 241 9.7 22.5 0.00 0.00 0.00 50 1010.5
20260507131504 17 216 9.7 22.5 0.00 0.00 0.00 50 1010.6
20260507131204 18 214 4.8 17.7 0.00 0.00 0.00 49 1010.3
20260507130904 17 221 4.8 17.7 0.00 0.00 0.00 50 1010.7
20260507130604 18 229 6.4 17.7 0.00 0.00 0.00 48 1010.7
20260507130304 17 226 6.4 22.5 0.00 0.00 0.00 49 1010.7
20260507130005 18 217 9.7 22.5 0.00 0.00 0.00 49 1010.6
20260507125704 18 220 8.0 22.5 0.00 0.00 0.00 48 1010.7
20260507125404 17 217 8.0 22.5 0.00 0.00 0.00 50 1010.8
20260507125104 17 224 9.7 22.5 0.00 0.00 0.00 48 1010.8
20260507124804 18 230 9.7 22.5 0.00 0.00 0.00 46 1010.8
20260507124505 18 235 12.9 24.1 0.00 0.00 0.00 44 1010.8
20260507124204 18 232 14.5 24.1 0.00 0.00 0.00 45 1010.6
20260507123904 19 237 12.9 24.1 0.00 0.00 0.00 45 1010.7
20260507123604 19 225 14.5 43.5 0.00 0.00 0.00 45 1010.7
20260507123304 18 200 16.1 43.5 0.00 0.00 0.00 45 1010.8
20260507123005 20 172 12.9 43.5 0.00 0.00 0.00 43 1010.7
20260507122705 20 167 17.7 43.5 0.00 0.00 0.00 40 1010.8